Location: Gud?rup?du
(16.6051°N, 80.5427°E)
Time: 10:07:49
(UTC+00:00)

Daily predictions for brighter satellites

Satellite Brightness Start Highest point End
(mag) Time Altitude Azimuth Time Altitude Azimuth Time Altitude Azimuth
Cosmos 2058 Rocket 3.0 13:24:19 10° S 13:28:37 81° E 13:32:56 10° N
Cosmos 1898 Rocket 3.6 13:23:50 10° N 13:29:03 62° ENE 13:34:16 10° SSE
CZ-2D R/B 4.0 13:26:25 10° SE 13:29:59 36° ENE 13:33:39 10° N
IRS-P3 4.2 13:26:06 10° SSE 13:31:24 89° WSW 13:36:43 10° NNW
ATLAS 2A CENTAUR R/B 3.4 13:30:38 10° NNW 13:31:59 15° NNE 13:33:49 10° ENE
PSLV R/B 4.5 13:29:08 10° SE 13:32:37 27° ENE 13:36:04 10° NNE
Cosmos 1536 4.2 13:30:40 10° NE 13:33:21 19° E 13:36:02 10° SE
Cosmos-2242 3.7 13:31:08 10° SSW 13:35:09 57° W 13:39:11 10° N
Cosmos 1076 Rocket 3.5 13:31:24 10° N 13:35:33 60° E 13:39:43 10° SSE
NOSS 3-2 (A) 4.1 13:32:33 10° SSE 13:35:34 17° ESE 13:38:37 10° ENE
Hubble Space Telescope 2.8 13:36:24 10° WNW 13:39:25 23° NNW 13:42:27 10° NE
CARTOSAT-1 4.0 13:39:11 10° S 13:43:19 63° W 13:47:27 10° NNW
SPOT 5 4.3 13:40:25 10° ESE 13:43:45 20° ENE 13:47:11 10° NNE
ARIANE 42L R/B 4.5 13:37:46 10° WSW 13:43:55 21° SSW 13:46:47 10° SSE
Cosmos 2082 3.9 13:40:35 10° S 13:45:59 50° ESE 13:51:22 10° NNE
ARIANE 5 R/B 4.3 13:42:55 10° SSW 13:47:30 32° W 13:52:04 10° NW
Cosmos 1470 4.3 13:47:56 10° NE 13:49:36 13° E 13:50:28 12° E
Cosmos 2263 Rocket 3.2 13:45:12 10° SSW 13:50:35 50° WNW 13:55:57 10° N
YAOGAN 1 4.1 13:46:52 10° SSW 13:50:45 36° W 13:54:39 10° NNW
Cosmos 1937 Rocket 3.4 13:47:58 10° N 13:53:06 78° ENE 13:58:16 10° SSE
Resurs 01 Rocket 1.8 13:48:52 10° S 13:53:14 74° W 13:57:36 10° NNW
Cosmos 1634 Rocket 4.0 13:49:52 10° S 13:56:03 75° E 14:02:16 10° N
Meteor 1-19 Rocket 4.4 13:51:53 10° S 13:57:42 61° E 14:03:38 10° NNE
SJ-7 4.1 13:55:35 10° SSE 13:59:12 89° W 14:02:49 10° NNW
Cosmos 2084 3.3 13:57:40 10° NNW 14:01:47 89° SW 14:05:19 13° SSE
Cosmos 858 Rocket 4.5 14:01:45 10° N 14:06:55 69° ENE 14:11:41 12° SSE
CZ-3 Stage 3 3.9 13:58:48 10° WNW 14:08:35 28° N 14:12:28 10° NE
Cosmos 2221 2.3 14:04:41 10° S 14:08:53 83° E 14:13:06 10° N
Cosmos 1844 Rocket 3.4 14:05:39 10° SSE 14:10:28 31° ESE 14:15:17 10° NE
COSMOS 2428 4.3 14:07:34 10° NW 14:12:33 33° WSW 14:17:33 10° SSW
Cosmos 1570 Rocket 4.4 14:08:58 10° S 14:13:54 41° E 14:18:51 10° NNE
ATLAS CENTAUR Rocket 3.3 14:11:24 10° W 14:14:56 32° SSW 14:19:11 17° SE
FUSE 4.0 14:10:15 10° WNW 14:15:34 73° SSW 14:18:46 24° ESE
Ariane H10+ 3.7 14:14:25 10° SW 14:17:23 14° SSW 14:19:20 11° S
Atlas Centaur 2 1.7 14:16:24 10° WNW 14:20:18 46° SSW 14:21:46 29° SSE
CZ-4 R/B 2.5 14:20:21 22° ENE 14:20:24 22° ENE 14:23:18 10° NNE
SJ-6B 2.8 14:17:59 13° S 14:20:57 61° W 14:24:19 10° NNW
Cosmos 489 Rocket 4.4 14:15:26 10° S 14:21:45 80° ESE 14:28:04 10° NNE
Aureole 2 3.9 14:22:36 14° S 14:25:10 79° ESE 14:28:10 10° NNE
Meteor 2-4 Rocket 4.3 14:25:40 26° SE 14:27:52 36° E 14:33:01 10° NNE
ERS-1 Rocket 4.0 14:28:46 25° E 14:29:32 26° ENE 14:33:39 10° NNE
Cosmos 1844 3.9 14:25:08 10° S 14:30:33 46° ESE 14:36:01 10° NNE
SL-24 R/B - RUBIN 2 3.8 14:29:38 10° SSW 14:34:43 79° WNW 14:39:20 10° NNE
Cosmos 2237 Rocket 2.8 14:34:27 10° NNW 14:39:54 53° WSW 14:44:13 16° S
Meteor 1-31 Rocket 3.5 14:40:48 32° NE 14:40:48 32° NE 14:43:10 10° N
Cosmos 1238 Rocket 3.6 14:41:49 43° ESE 14:42:06 43° E 14:46:42 10° NNE
Milstar 3 Cent rocket 3.8 14:38:14 10° WNW 14:42:25 25° N 14:46:19 10° NE
ATLAS 2AS CENTAUR R/B 4.3 14:40:45 10° NNE 14:44:46 16° ENE 14:45:52 16° ENE
Meteor 2-9 Rocket 4.2 14:40:16 10° N 14:46:04 73° E 14:48:40 34° SSE
Helios 1A Rocket 3.4 14:43:53 10° NNE 14:45:44 33° NNE 14:45:44 33° NNE
SL-16 R/B 2.9 14:42:32 10° N 14:47:36 33° ENE 14:48:03 33° E
Meteor 1-14 Rocket 4.2 14:44:34 10° N 14:50:18 84° E 14:52:59 34° S
PAYLOAD B 4.3 14:58:24 51° ESE 14:59:03 55° ENE 15:04:29 10° N
SL-08 R/B 3.1 14:55:37 10° NNE 15:00:10 89° ESE 15:00:58 61° S
SL-08 ROCKET BODY 4.3 14:58:36 10° N 15:04:39 83° W 15:06:54 41° S
Yuri Rocket 4.1 14:56:40 10° WNW 15:05:01 77° NNE 15:06:41 52° E
FALCON 9 R/B 4.3 14:59:42 10° WNW 15:08:03 68° NNE 15:29:16 24° E
Skynet4D Del rocket 3.3 15:04:16 10° WNW 15:09:50 78° SSW 15:10:04 76° S
DMSP B5D2-7 4.5 15:18:05 85° SE 15:18:14 87° ENE 15:23:42 10° NNW
Hubble Space Telescope 3.3 15:17:55 10° NNW 15:19:45 13° N 15:20:24 13° N
Terra 2.1 15:22:33 64° NNW 15:22:33 64° NNW 15:26:33 10° NNW
Meteor 2-20 Rocket 4.2 15:25:53 76° SW 15:26:16 80° W 15:32:04 10° N
IRAS Rocket 4.2 15:27:40 81° W 15:27:40 81° W 15:33:07 10° NNW
MetOp-B 4.2 15:31:16 72° WNW 15:31:16 72° WNW 15:36:12 10° NNW
CZ-4B R/B 3.6 15:41:40 61° WNW 15:41:40 61° WNW 15:46:26 10° NNW
Meteor 1-11 Rocket 4.4 15:37:39 10° NNW 15:42:58 48° W 15:43:06 48° W
Cosmos 2266 Rocket 4.0 15:37:42 10° N 15:43:36 76° NW 15:43:36 76° NW
CZ-4 R/B 4.4 15:55:17 10° W 15:55:17 10° W 15:55:25 10° WNW
CZ-4C R/B 3.8 16:01:09 10° N 16:07:58 45° NE 16:07:58 45° NE
SL-16 R/B 4.5 16:27:30 10° WNW 16:29:56 17° W 16:29:56 17° W
ATLAS 2AS CENTAUR R/B 3.8 16:29:05 10° NW 16:33:18 39° NW 16:33:18 39° NW
Resurs 1-4 Rocket 4.1 20:47:25 10° NNE 20:49:38 24° NE 20:49:38 24° NE
ADEOS II 4.2 20:48:23 10° NE 20:50:50 22° ENE 20:50:50 22° ENE
CZ-2D R/B 3.4 21:10:00 10° NNE 21:13:14 37° NNE 21:13:14 37° NNE
USA 234 4.1 21:15:22 10° NNE 21:20:34 37° NNW 21:20:34 37° NNW
H-2A R/B 3.3 21:17:34 10° NNE 21:20:38 37° NNE 21:20:38 37° NNE
Cosmos 1697 Rocket 3.1 21:41:11 55° ESE 21:41:21 55° ESE 21:46:49 10° NNE
Cosmos 1605 Rocket 4.0 21:38:52 10° N 21:45:06 76° E 21:46:08 62° SSE
Cosmos 676 Rocket 4.3 21:45:40 62° E 21:45:40 62° E 21:50:37 10° NNE
ASC 2 Rocket 3.6 21:55:02 82° SW 21:55:10 83° SSW 22:00:09 10° ESE
ATLAS 3B R/B 2.9 21:53:14 49° S 21:55:20 73° ESE 22:03:00 10° NNE
GPS 2-12 Rocket1 3.8 21:57:21 46° E 21:57:21 46° E 22:00:31 10° E
AQUA 4.3 21:52:44 10° NNE 21:57:17 52° E 21:57:45 50° ESE
Cosmos 1763 Rocket 4.1 21:55:14 10° N 22:00:07 52° ENE 22:04:03 16° SSE
Cosmos 1535 Rocket 4.3 21:53:57 10° N 22:00:09 71° W 22:00:45 66° SW
Cosmos 2058 4.4 22:00:32 26° ESE 22:01:17 28° E 22:04:37 10° NNE
METEOR-M 4.2 21:59:50 10° N 22:04:53 59° WNW 22:04:53 59° WNW
ALOS 4.4 22:11:31 10° NNW 22:12:25 13° NW 22:12:25 13° NW
H-2A R/B 2.3 22:15:44 72° NNE 22:15:44 72° NNE 22:19:14 10° N
Spot 2 4.3 22:14:59 28° SSE 22:17:19 72° ENE 22:21:38 10° N
Cosmos 2123 Rocket 4.2 22:13:40 22° S 22:17:53 71° E 22:24:10 10° N
Okean 1 Rocket 2.8 22:16:06 10° N 22:20:25 88° W 22:21:06 63° S
Lacrosse 4 Rocket 3.2 22:16:30 10° NNW 22:17:55 20° NW 22:17:55 20° NW
USA 229 DEB 3.8 22:19:52 39° W 22:20:35 40° WNW 22:26:11 10° N
USA 229 3.7 22:19:52 40° W 22:20:37 42° WNW 22:26:15 10° N
SL-16 R/B 4.2 22:15:52 10° SE 22:21:17 33° ENE 22:26:41 10° NNE
Cosmos 292 Rocket 3.6 22:23:18 59° SW 22:24:01 70° WNW 22:28:46 10° N
Cosmos 1975 Rocket 3.0 22:23:21 47° S 22:24:32 81° E 22:28:50 10° N
Cosmos 1980 Rocket 2.8 22:21:17 22° S 22:24:46 55° ESE 22:30:18 10° NNE
Cosmos 1727 Rocket 4.3 22:23:40 42° WSW 22:24:51 46° W 22:30:48 10° NNW
Cosmos 1153 Rocket 4.3 22:20:35 10° N 22:26:45 86° W 22:32:37 11° S
Palapa B4 Rocket 3.6 22:25:27 27° WNW 22:28:38 68° N 22:32:56 10° E
CZ-2C R/B 3.1 22:25:56 10° NNE 22:30:38 52° ESE 22:34:44 14° S
Resurs 1-4 Rocket 4.2 22:30:00 10° NW 22:30:40 11° WNW 22:30:40 11° WNW
ADEOS II 3.6 22:28:19 10° NNW 22:31:38 20° WNW 22:31:38 20° WNW
Cosmos 1862 3.3 22:33:48 50° WNW 22:33:48 50° WNW 22:36:51 10° N
SeaSat 1 2.6 22:40:44 10° S 22:45:26 49° WSW 22:50:08 10° NW
Cosmos 968 Rocket 3.8 22:44:48 31° SW 22:46:45 46° WNW 22:51:44 10° N
Cosmos 1932 4.4 22:48:18 10° NNW 22:54:40 79° WSW 23:00:52 10° SSE
Aurora 2 Rocket 3.1 22:51:14 13° WNW 22:55:22 78° NNE 23:01:49 10° ESE
Cosmos 1939 Rocket 3.3 22:53:59 10° NNE 22:57:39 56° E 23:01:16 10° S
ARGOS 4.5 22:55:58 10° NNW 22:59:55 21° WNW 23:01:37 18° W
Cosmos 2173 Rocket 3.9 22:54:48 10° N 23:01:03 74° W 23:07:11 10° S
Cosmos 2100 Rocket 3.9 22:57:48 10° NNW 23:03:58 66° W 23:10:04 10° S
Cosmos 1459 Rocket 3.9 22:58:02 10° N 23:04:14 76° W 23:10:30 10° S
H-2A R/B 2.9 23:06:16 10° NNW 23:09:58 30° WNW 23:12:28 17° SW
Cosmos 2016 Rocket 4.3 23:05:07 10° N 23:11:19 71° E 23:17:35 10° S
SWIFT 2.7 23:13:11 10° WNW 23:16:03 37° N 23:18:55 10° ENE
Cosmos 1455 Rocket 3.7 23:12:57 10° NNW 23:16:49 33° W 23:20:43 10° SSW
Cosmos 1725 Rocket 4.0 23:10:54 10° N 23:17:08 90° W 23:23:25 10° S
Cosmos 2228 3.0 23:13:59 10° NNW 23:18:05 54° W 23:22:13 10° S
USA 281 3.2 23:15:22 10° SSE 23:21:56 85° WSW 23:28:30 10° NNW
Cosmos 1782 3.8 23:19:42 10° NW 23:22:25 21° W 23:25:04 10° SW
Cosmos 1802 Rocket 4.1 23:18:26 10° N 23:24:45 69° W 23:31:08 10° S
Cosmos 2237 4.3 23:20:57 10° SSW 23:26:39 87° ESE 23:32:22 10° NNE
Cosmos 1437 Rocket 3.0 23:29:51 10° NNW 23:32:58 34° W 23:36:04 10° SSW
DELTA 2 R/B (1) 3.8 23:30:16 10° SW 23:35:45 71° SE 23:41:15 10° ENE
Cosmos 1544 Rocket 3.8 23:31:40 10° N 23:36:02 75° E 23:40:25 10° S
Cosmos 2227 Rocket 3.8 23:32:04 10° N 23:37:19 40° ENE 23:42:33 10° SE
GPS 2-12 Rocket1 3.3 23:34:39 10° W 23:38:50 47° SSW 23:43:05 10° ESE
Cosmos 1536 Rocket 3.7 23:34:41 10° SSW 23:38:54 53° W 23:43:08 10° N
UNK 4.1 23:36:15 10° SSE 23:40:43 68° ENE 23:45:10 10° N
NOAA 12 4.1 23:37:38 10° N 23:42:52 70° WNW 23:48:07 10° SSW
Meteor 2-17 Rocket 4.5 23:37:34 10° SSW 23:43:38 68° W 23:49:40 10° N
